When you browse on this site, cookies collect data to enhance your experience and personalize the content and advertising you see.
Visit our Privacy Policy to learn more. By continuing to use the site, you agree to this use of cookies and data.
EN

Hourly Weather Poteryaiky

Today, 27 September, Sunday

Time Temperature Precipitation Wind Pressure Humidity
00:00 +21°C° 0 mm 7 mps 748 mmHg 35%
01:00 +20°C° 0 mm 7 mps 748 mmHg 37%
02:00 +20°C° 0 mm 7 mps 749 mmHg 40%
03:00 +20°C° 0.1 mm 7 mps 749 mmHg 43%
04:00 +20°C° 0.1 mm 8 mps 749 mmHg 46%
05:00 +20°C° 0.1 mm 8 mps 749 mmHg 48%
06:00 +20°C° 0.1 mm 8 mps 749 mmHg 48%
07:00 +19°C° 0.1 mm 9 mps 749 mmHg 48%
08:00 +19°C° 0.1 mm 9 mps 749 mmHg 47%
09:00 +21°C° 0 mm 9 mps 749 mmHg 45%
10:00 +22°C° 0 mm 9 mps 749 mmHg 42%
11:00 +23°C° 0 mm 9 mps 750 mmHg 39%
12:00 +24°C° 0 mm 9 mps 750 mmHg 41%
13:00 +24°C° 0 mm 9 mps 750 mmHg 43%
14:00 +24°C° 0 mm 9 mps 750 mmHg 45%
15:00 +23°C° 0.2 mm 8 mps 750 mmHg 50%
16:00 +23°C° 0.2 mm 7 mps 750 mmHg 55%
17:00 +22°C° 0.2 mm 6 mps 750 mmHg 60%
18:00 +21°C° 0.2 mm 6 mps 750 mmHg 66%
19:00 +20°C° 0.2 mm 6 mps 751 mmHg 73%
20:00 +17°C° 0.2 mm 6 mps 751 mmHg 80%
21:00 +17°C° 0 mm 6 mps 752 mmHg 81%
22:00 +17°C° 0 mm 5 mps 752 mmHg 83%
23:00 +17°C° 0 mm 4 mps 753 mmHg 85%

Tomorrow, 28 September, Monday

Time Temperature Precipitation Wind Pressure Humidity
00:00 +16°C° 0 mm 3 mps 753 mmHg 86%
01:00 +16°C° 0 mm 2 mps 754 mmHg 87%
02:00 +15°C° 0 mm 2 mps 754 mmHg 89%
03:00 +14°C° 0 mm 2 mps 754 mmHg 89%
04:00 +14°C° 0 mm 1 mps 755 mmHg 90%
05:00 +13°C° 0 mm 1 mps 755 mmHg 90%
06:00 +15°C° 0 mm 2 mps 756 mmHg 86%
07:00 +16°C° 0 mm 2 mps 756 mmHg 82%
08:00 +17°C° 0 mm 2 mps 756 mmHg 77%
09:00 +19°C° 0 mm 2 mps 756 mmHg 68%
10:00 +21°C° 0 mm 2 mps 757 mmHg 58%
11:00 +24°C° 0 mm 1 mps 757 mmHg 49%
12:00 +25°C° 0 mm 1 mps 757 mmHg 44%
13:00 +26°C° 0 mm 1 mps 756 mmHg 39%
14:00 +26°C° 0 mm 1 mps 756 mmHg 34%
15:00 +25°C° 0 mm 1 mps 756 mmHg 37%
16:00 +24°C° 0 mm 1 mps 756 mmHg 40%
17:00 +21°C° 0 mm 0 mps 756 mmHg 43%
18:00 +22°C° 0 mm 1 mps 756 mmHg 47%
19:00 +20°C° 0 mm 2 mps 756 mmHg 51%
20:00 +19°C° 0 mm 3 mps 756 mmHg 54%
21:00 +19°C° 0 mm 3 mps 756 mmHg 54%
22:00 +18°C° 0 mm 3 mps 756 mmHg 53%
23:00 +18°C° 0 mm 4 mps 756 mmHg 52%

Day after tomorrow, 29 September, Tuesday

Time Temperature Precipitation Wind Pressure Humidity
00:00 +18°C° 0 mm 4 mps 755 mmHg 51%
01:00 +18°C° 0 mm 4 mps 755 mmHg 49%
02:00 +18°C° 0 mm 4 mps 755 mmHg 47%
03:00 +17°C° 0 mm 4 mps 755 mmHg 49%
04:00 +17°C° 0 mm 4 mps 755 mmHg 51%
05:00 +15°C° 0 mm 4 mps 754 mmHg 53%
06:00 +16°C° 0 mm 5 mps 754 mmHg 51%
07:00 +17°C° 0 mm 5 mps 754 mmHg 50%
08:00 +19°C° 0 mm 6 mps 754 mmHg 48%
09:00 +20°C° 0 mm 6 mps 754 mmHg 46%
10:00 +21°C° 0 mm 6 mps 754 mmHg 43%
11:00 +23°C° 0 mm 6 mps 753 mmHg 41%
12:00 +23°C° 0 mm 6 mps 753 mmHg 41%
13:00 +23°C° 0 mm 6 mps 753 mmHg 41%
14:00 +24°C° 0 mm 6 mps 752 mmHg 42%
15:00 +23°C° 0 mm 6 mps 752 mmHg 44%
16:00 +22°C° 0 mm 6 mps 751 mmHg 46%
17:00 +21°C° 0 mm 6 mps 751 mmHg 47%
18:00 +20°C° 0.3 mm 6 mps 751 mmHg 52%
19:00 +18°C° 0.3 mm 7 mps 751 mmHg 57%
20:00 +17°C° 0.3 mm 7 mps 750 mmHg 62%
21:00 +17°C° 0.1 mm 7 mps 750 mmHg 58%
22:00 +17°C° 0.1 mm 7 mps 750 mmHg 53%
23:00 +17°C° 0.1 mm 7 mps 749 mmHg 48%

30 September, Wednesday

Time Temperature Precipitation Wind Pressure Humidity
00:00 +17°C° 0.1 mm 7 mps 749 mmHg 49%
01:00 +17°C° 0.1 mm 7 mps 749 mmHg 49%
02:00 +16°C° 0.1 mm 7 mps 748 mmHg 49%
03:00 +16°C° 0.1 mm 7 mps 748 mmHg 52%
04:00 +16°C° 0.1 mm 7 mps 748 mmHg 54%
05:00 +15°C° 0.1 mm 7 mps 748 mmHg 57%
06:00 +16°C° 0 mm 8 mps 748 mmHg 55%
07:00 +16°C° 0 mm 9 mps 747 mmHg 54%
08:00 +16°C° 0 mm 9 mps 747 mmHg 53%
09:00 +17°C° 0 mm 9 mps 747 mmHg 51%
10:00 +18°C° 0 mm 9 mps 747 mmHg 49%
11:00 +19°C° 0 mm 9 mps 747 mmHg 47%
12:00 +18°C° 0 mm 9 mps 747 mmHg 50%
13:00 +18°C° 0 mm 9 mps 747 mmHg 53%
14:00 +18°C° 0 mm 8 mps 746 mmHg 56%
15:00 +17°C° 0.8 mm 8 mps 746 mmHg 65%
16:00 +15°C° 0.8 mm 8 mps 746 mmHg 75%
17:00 +13°C° 0.8 mm 8 mps 746 mmHg 84%
18:00 +13°C° 0.7 mm 8 mps 746 mmHg 82%
19:00 +14°C° 0.7 mm 7 mps 746 mmHg 81%
20:00 +14°C° 0.7 mm 7 mps 746 mmHg 79%
21:00 +14°C° 0.9 mm 6 mps 746 mmHg 77%
22:00 +14°C° 0.9 mm 6 mps 746 mmHg 76%
23:00 +15°C° 0.9 mm 6 mps 745 mmHg 75%

1 October, Thursday

Time Temperature Precipitation Wind Pressure Humidity
00:00 +15°C° 0.3 mm 5 mps 745 mmHg 75%
01:00 +15°C° 0.3 mm 4 mps 745 mmHg 76%
02:00 +15°C° 0.3 mm 4 mps 745 mmHg 76%
03:00 +14°C° 0.1 mm 4 mps 746 mmHg 81%
04:00 +14°C° 0.1 mm 4 mps 747 mmHg 86%
05:00 +13°C° 0.1 mm 5 mps 747 mmHg 91%
06:00 +14°C° 0 mm 5 mps 748 mmHg 87%
07:00 +15°C° 0 mm 6 mps 748 mmHg 84%
08:00 +16°C° 0 mm 6 mps 749 mmHg 80%
09:00 +17°C° 0 mm 6 mps 749 mmHg 73%
10:00 +19°C° 0 mm 6 mps 749 mmHg 66%
11:00 +20°C° 0 mm 7 mps 749 mmHg 59%
12:00 +20°C° 0 mm 7 mps 749 mmHg 56%
13:00 +20°C° 0 mm 8 mps 749 mmHg 53%
14:00 +21°C° 0 mm 8 mps 749 mmHg 50%
15:00 +20°C° 0 mm 7 mps 749 mmHg 51%
16:00 +19°C° 0 mm 6 mps 749 mmHg 52%
17:00 +17°C° 0 mm 5 mps 749 mmHg 53%
18:00 +16°C° 0 mm 6 mps 749 mmHg 54%
19:00 +16°C° 0 mm 6 mps 749 mmHg 54%
20:00 +15°C° 0 mm 6 mps 749 mmHg 54%
21:00 +15°C° 0 mm 6 mps 749 mmHg 58%
22:00 +15°C° 0 mm 6 mps 749 mmHg 62%
23:00 +15°C° 0 mm 6 mps 749 mmHg 66%

2 October, Friday

Time Temperature Precipitation Wind Pressure Humidity
00:00 +15°C° 0 mm 6 mps 750 mmHg 64%
01:00 +15°C° 0 mm 6 mps 750 mmHg 63%
02:00 +15°C° 0 mm 6 mps 750 mmHg 61%
03:00 +14°C° 0 mm 6 mps 750 mmHg 60%
04:00 +14°C° 0 mm 6 mps 750 mmHg 60%
05:00 +13°C° 0 mm 6 mps 750 mmHg 59%
06:00 +12°C° 0 mm 7 mps 750 mmHg 64%
07:00 +12°C° 0 mm 7 mps 750 mmHg 70%
08:00 +12°C° 0 mm 7 mps 750 mmHg 75%
09:00 +12°C° 0 mm 7 mps 751 mmHg 73%
10:00 +14°C° 0 mm 7 mps 751 mmHg 71%
11:00 +15°C° 0 mm 6 mps 751 mmHg 70%
12:00 +15°C° 0 mm 6 mps 751 mmHg 68%
13:00 +16°C° 0 mm 6 mps 751 mmHg 66%
14:00 +16°C° 0 mm 7 mps 751 mmHg 64%
15:00 +15°C° 0 mm 6 mps 751 mmHg 66%
16:00 +15°C° 0 mm 6 mps 751 mmHg 67%
17:00 +15°C° 0 mm 5 mps 751 mmHg 68%
18:00 +14°C° 0 mm 5 mps 751 mmHg 70%
19:00 +13°C° 0 mm 5 mps 752 mmHg 72%
20:00 +13°C° 0 mm 5 mps 752 mmHg 74%
21:00 +12°C° 0 mm 5 mps 752 mmHg 73%
22:00 +12°C° 0 mm 4 mps 752 mmHg 72%
23:00 +12°C° 0 mm 4 mps 752 mmHg 72%
Show more